| time (UTC) | temp F | wind direction | speed MPH | gust MPH | rain 1hr in | rain 24hr in | rain mn in | humidity % | barometer mb |
| 20260506163835 | 56 | 356 | 11.0 | 15.0 | 0.00 | 0.00 | 0.00 | 77 | 1010.2 |
| 20260506163337 | 56 | 305 | 8.0 | 15.0 | 0.00 | 0.00 | 0.00 | 75 | 1010.3 |
| 20260506162836 | 56 | 308 | 6.0 | 18.0 | 0.00 | 0.00 | 0.00 | 76 | 1010.1 |
| 20260506162337 | 56 | 317 | 12.0 | 18.0 | 0.00 | 0.00 | 0.00 | 74 | 1010.1 |
| 20260506161836 | 56 | 325 | 9.0 | 17.0 | 0.00 | 0.00 | 0.00 | 74 | 1010.1 |
| 20260506161555 | 56 | 317 | 7.0 | 19.0 | 0.00 | 0.00 | 0.00 | 78 | 1010.0 |
| 20260506160837 | 56 | 333 | 9.0 | 19.0 | 0.00 | 0.00 | 0.00 | 74 | 1010.1 |
| 20260506160336 | 56 | 303 | 9.0 | 19.0 | 0.00 | 0.00 | 0.00 | 77 | 1010.2 |
| 20260506160116 | 56 | 311 | 13.0 | 19.0 | 0.00 | 0.00 | 0.00 | 77 | 1010.1 |
| 20260506155340 | 56 | 302 | 7.0 | 18.0 | 0.00 | 0.00 | 0.00 | 77 | 1010.0 |
| 20260506154838 | 56 | 329 | 6.0 | 21.0 | 0.00 | 0.00 | 0.00 | 78 | 1010.1 |
| 20260506154336 | 55 | 322 | 9.0 | 21.0 | 0.00 | 0.00 | 0.00 | 79 | 1009.9 |
| 20260506153840 | 55 | 332 | 14.0 | 17.0 | 0.00 | 0.00 | 0.00 | 77 | 1010.1 |
| 20260506153335 | 55 | 321 | 4.0 | 17.0 | 0.00 | 0.00 | 0.00 | 79 | 1010.2 |
| 20260506152836 | 55 | 322 | 9.0 | 17.0 | 0.00 | 0.00 | 0.00 | 79 | 1010.3 |
| 20260506152336 | 55 | 318 | 9.0 | 18.0 | 0.00 | 0.00 | 0.00 | 77 | 1010.3 |
| 20260506151835 | 56 | 296 | 9.0 | 18.0 | 0.00 | 0.00 | 0.00 | 77 | 1010.1 |
| 20260506151337 | 56 | 307 | 8.0 | 17.0 | 0.00 | 0.00 | 0.00 | 79 | 1010.2 |
| 20260506150835 | 56 | 325 | 7.0 | 18.0 | 0.00 | 0.00 | 0.00 | 79 | 1010.1 |
| 20260506150336 | 56 | 317 | 13.0 | 18.0 | 0.00 | 0.00 | 0.00 | 77 | 1010.1 |
| 20260506145839 | 57 | 322 | 7.0 | 17.0 | 0.00 | 0.00 | 0.00 | 79 | 1009.9 |
| 20260506145604 | 57 | 317 | 6.0 | 17.0 | 0.00 | 0.00 | 0.00 | 77 | 1009.9 |
| 20260506144836 | 57 | 324 | 9.0 | 14.0 | 0.00 | 0.00 | 0.00 | 76 | 1010.0 |
| 20260506144338 | 57 | 327 | 9.0 | 14.0 | 0.00 | 0.00 | 0.00 | 78 | 1010.0 |
| 20260506144103 | 56 | 324 | 5.0 | 14.0 | 0.00 | 0.00 | 0.00 | 79 | 1010.0 |
| 20260506143337 | 56 | 318 | 7.0 | 14.0 | 0.00 | 0.00 | 0.00 | 78 | 1009.9 |
| 20260506142835 | 56 | 318 | 11.0 | 16.0 | 0.00 | 0.00 | 0.00 | 79 | 1010.1 |
| 20260506142602 | 56 | 333 | 8.0 | 16.0 | 0.00 | 0.00 | 0.00 | 78 | 1010.0 |
| 20260506141834 | 56 | 325 | 11.0 | 16.0 | 0.00 | 0.00 | 0.00 | 76 | 1010.0 |
| 20260506141338 | 56 | 348 | 9.0 | 18.0 | 0.00 | 0.00 | 0.00 | 78 | 1010.0 |
| 20260506141107 | 56 | 308 | 9.0 | 18.0 | 0.00 | 0.00 | 0.00 | 77 | 1010.1 |
| 20260506140337 | 56 | 304 | 7.0 | 14.0 | 0.00 | 0.00 | 0.00 | 79 | 1010.0 |
| 20260506135836 | 56 | 311 | 8.0 | 14.0 | 0.00 | 0.00 | 0.00 | 78 | 1009.9 |
| 20260506135337 | 56 | 333 | 7.0 | 14.0 | 0.00 | 0.00 | 0.00 | 79 | 1010.2 |
| 20260506134834 | 56 | 340 | 9.0 | 13.0 | 0.00 | 0.00 | 0.00 | 79 | 1010.0 |
| 20260506134336 | 56 | 298 | 5.0 | 14.0 | 0.00 | 0.00 | 0.00 | 80 | 1010.2 |
| 20260506133836 | 55 | 317 | 11.0 | 14.0 | 0.00 | 0.00 | 0.00 | 80 | 1010.1 |
| 20260506133335 | 55 | 336 | 4.0 | 14.0 | 0.00 | 0.00 | 0.00 | 82 | 1010.1 |
| 20260506132836 | 55 | 336 | 8.0 | 14.0 | 0.00 | 0.00 | 0.00 | 80 | 1010.3 |
| 20260506132333 | 55 | 302 | 7.0 | 15.0 | 0.00 | 0.00 | 0.00 | 82 | 1010.4 |
| 20260506132104 | 54 | 315 | 7.0 | 14.0 | 0.00 | 0.00 | 0.00 | 83 | 1010.1 |
| 20260506131336 | 54 | 336 | 5.0 | 15.0 | 0.00 | 0.00 | 0.00 | 82 | 1010.2 |
| 20260506130836 | 54 | 316 | 5.0 | 15.0 | 0.00 | 0.00 | 0.00 | 83 | 1010.1 |
| 20260506130335 | 54 | 339 | 12.0 | 15.0 | 0.00 | 0.00 | 0.00 | 84 | 1010.0 |
| 20260506125336 | 55 | 314 | 7.0 | 14.0 | 0.00 | 0.00 | 0.00 | 83 | 1010.0 |
| 20260506124837 | 55 | 300 | 6.0 | 18.0 | 0.00 | 0.00 | 0.00 | 84 | 1010.0 |
| 20260506124335 | 55 | 298 | 11.0 | 18.0 | 0.00 | 0.00 | 0.00 | 82 | 1009.9 |
| 20260506123835 | 55 | 303 | 4.0 | 11.0 | 0.00 | 0.00 | 0.00 | 81 | 1009.7 |
| 20260506123335 | 56 | 321 | 5.0 | 14.0 | 0.00 | 0.00 | 0.00 | 82 | 1009.9 |
| 20260506122837 | 56 | 315 | 4.0 | 14.0 | 0.00 | 0.00 | 0.00 | 84 | 1010.0 |
| 20260506122336 | 55 | 309 | 3.0 | 16.0 | 0.00 | 0.00 | 0.00 | 83 | 1009.8 |
| 20260506121836 | 56 | 293 | 8.0 | 16.0 | 0.00 | 0.00 | 0.00 | 84 | 1009.9 |
| 20260506121338 | 55 | 327 | 11.0 | 16.0 | 0.00 | 0.00 | 0.00 | 80 | 1009.9 |
| 20260506120836 | 55 | 352 | 6.0 | 14.0 | 0.00 | 0.00 | 0.00 | 82 | 1009.7 |
| 20260506120336 | 55 | 310 | 7.0 | 13.0 | 0.00 | 0.00 | 0.00 | 83 | 1009.7 |
| 20260506115836 | 54 | 319 | 8.0 | 13.0 | 0.00 | 0.00 | 0.00 | 82 | 1009.9 |
| 20260506115605 | 54 | 311 | 4.0 | 11.0 | 0.00 | 0.00 | 0.00 | 85 | 1009.9 |
| 20260506114835 | 54 | 322 | 6.0 | 13.0 | 0.00 | 0.00 | 0.00 | 83 | 1010.0 |
| 20260506114341 | 54 | 305 | 6.0 | 13.0 | 0.00 | 0.00 | 0.00 | 84 | 1009.9 |
| 20260506113838 | 54 | 324 | 7.0 | 11.0 | 0.00 | 0.00 | 0.00 | 84 | 1010.0 |
| 20260506113336 | 54 | 335 | 5.0 | 14.0 | 0.00 | 0.00 | 0.00 | 85 | 1010.0 |
| 20260506112835 | 54 | 337 | 9.0 | 14.0 | 0.00 | 0.00 | 0.00 | 83 | 1009.9 |
| 20260506112335 | 55 | 296 | 7.0 | 13.0 | 0.00 | 0.00 | 0.00 | 81 | 1010.0 |
| 20260506111837 | 55 | 310 | 7.0 | 13.0 | 0.00 | 0.00 | 0.00 | 82 | 1009.9 |
| 20260506111335 | 55 | 337 | 8.0 | 13.0 | 0.00 | 0.00 | 0.00 | 84 | 1009.8 |
| 20260506111104 | 55 | 316 | 6.0 | 15.0 | 0.00 | 0.00 | 0.00 | 85 | 1010.0 |
| 20260506105845 | 54 | 352 | 8.0 | 15.0 | 0.00 | 0.00 | 0.00 | 85 | 1010.0 |
| 20260506105338 | 54 | 350 | 5.0 | 15.0 | 0.00 | 0.00 | 0.00 | 87 | 1009.8 |
| 20260506104836 | 53 | 318 | 7.0 | 15.0 | 0.00 | 0.00 | 0.00 | 89 | 1009.9 |
| 20260506104336 | 53 | 314 | 4.0 | 15.0 | 0.00 | 0.00 | 0.00 | 89 | 1009.8 |
| 20260506103836 | 52 | 345 | 6.0 | 11.0 | 0.00 | 0.00 | 0.00 | 93 | 1009.9 |
| 20260506103337 | 52 | 320 | 5.0 | 11.0 | 0.00 | 0.00 | 0.00 | 91 | 1010.0 |
| 20260506102836 | 51 | 280 | 5.0 | 13.0 | 0.00 | 0.00 | 0.00 | 94 | 1010.0 |
| 20260506102337 | 51 | 305 | 10.0 | 13.0 | 0.00 | 0.00 | 0.00 | 94 | 1010.0 |
| 20260506102105 | 51 | 315 | 9.0 | 11.0 | 0.00 | 0.00 | 0.00 | 94 | 1010.1 |
| 20260506101343 | 50 | 293 | 3.0 | 8.0 | 0.00 | 0.00 | 0.00 | 96 | 1010.0 |
| 20260506100836 | 50 | 306 | 4.0 | 13.0 | 0.00 | 0.00 | 0.00 | 97 | 1010.1 |
| 20260506100338 | 50 | 317 | 2.0 | 13.0 | 0.00 | 0.00 | 0.00 | 97 | 1010.1 |
| 20260506095835 | 49 | 296 | 6.0 | 10.0 | 0.00 | 0.00 | 0.00 | 97 | 1010.2 |
| 20260506095334 | 49 | 6 | 6.0 | 13.0 | 0.00 | 0.00 | 0.00 | 97 | 1010.1 |
| 20260506094835 | 49 | 316 | 6.0 | 13.0 | 0.00 | 0.00 | 0.00 | 97 | 1010.0 |
| 20260506094334 | 49 | 324 | 7.0 | 13.0 | 0.00 | 0.00 | 0.00 | 97 | 1010.1 |
| 20260506093338 | 49 | 317 | 9.0 | 11.0 | 0.00 | 0.00 | 0.00 | 96 | 1010.1 |
| 20260506093100 | 49 | 345 | 5.0 | 11.0 | 0.00 | 0.00 | 0.00 | 97 | 1010.1 |
| 20260506092337 | 49 | 354 | 7.0 | 11.0 | 0.00 | 0.00 | 0.00 | 97 | 1009.8 |
| 20260506091838 | 49 | 312 | 4.0 | 11.0 | 0.00 | 0.00 | 0.00 | 97 | 1009.9 |
| 20260506091607 | 49 | 323 | 6.0 | 13.0 | 0.00 | 0.00 | 0.00 | 97 | 1009.8 |
| 20260506090838 | 49 | 324 | 6.0 | 13.0 | 0.00 | 0.00 | 0.00 | 97 | 1010.0 |
| 20260506090337 | 49 | 319 | 8.0 | 13.0 | 0.00 | 0.00 | 0.00 | 97 | 1009.6 |
| 20260506085837 | 49 | 347 | 6.0 | 9.0 | 0.00 | 0.00 | 0.00 | 97 | 1009.8 |
| 20260506085338 | 49 | 351 | 5.0 | 10.0 | 0.00 | 0.00 | 0.00 | 97 | 1009.6 |
| 20260506084839 | 49 | 334 | 2.0 | 13.0 | 0.00 | 0.00 | 0.00 | 97 | 1009.6 |
| 20260506084337 | 49 | 346 | 5.0 | 14.0 | 0.00 | 0.00 | 0.00 | 97 | 1009.6 |
| 20260506083838 | 49 | 352 | 10.0 | 15.0 | 0.00 | 0.00 | 0.00 | 97 | 1009.6 |
| 20260506083345 | 49 | 333 | 7.0 | 15.0 | 0.00 | 0.00 | 0.00 | 97 | 1009.4 |
| 20260506082908 | 49 | 355 | 8.0 | 14.0 | 0.00 | 0.00 | 0.00 | 96 | 1009.5 |
| 20260506082337 | 49 | 340 | 4.0 | 13.0 | 0.00 | 0.00 | 0.00 | 96 | 1009.6 |
| 20260506081837 | 49 | 348 | 7.0 | 16.0 | 0.00 | 0.00 | 0.00 | 96 | 1009.4 |
| 20260506081553 | 49 | 334 | 5.0 | 16.0 | 0.00 | 0.00 | 0.00 | 96 | 1009.5 |
| 20260506080837 | 49 | 320 | 6.0 | 15.0 | 0.00 | 0.00 | 0.00 | 95 | 1009.4 |
| 20260506080337 | 49 | 348 | 9.0 | 15.0 | 0.00 | 0.00 | 0.00 | 94 | 1009.5 |
| 20260506073338 | 50 | 325 | 8.0 | 14.0 | 0.00 | 0.00 | 0.00 | 90 | 1009.1 |
| 20260506073053 | 50 | 341 | 11.0 | 14.0 | 0.00 | 0.00 | 0.00 | 90 | 1009.2 |
| 20260506072334 | 50 | 336 | 5.0 | 17.0 | 0.00 | 0.00 | 0.00 | 89 | 1009.0 |
| 20260506071835 | 50 | 312 | 10.0 | 17.0 | 0.00 | 0.00 | 0.00 | 89 | 1009.0 |
| 20260506071338 | 50 | 333 | 11.0 | 15.0 | 0.00 | 0.00 | 0.00 | 89 | 1009.0 |
| 20260506070832 | 50 | 345 | 6.0 | 14.0 | 0.00 | 0.00 | 0.00 | 90 | 1009.0 |
| 20260506070554 | 50 | 335 | 12.0 | 14.0 | 0.00 | 0.00 | 0.00 | 90 | 1009.0 |
| 20260506062335 | 48 | 308 | 9.0 | 13.0 | 0.00 | 0.00 | 0.00 | 91 | 1009.1 |
| 20260506062101 | 48 | 317 | 5.0 | 13.0 | 0.00 | 0.00 | 0.00 | 91 | 1008.9 |
| 20260506061335 | 48 | 311 | 6.0 | 13.0 | 0.00 | 0.00 | 0.00 | 90 | 1008.9 |
| 20260506060834 | 48 | 333 | 5.0 | 13.0 | 0.00 | 0.00 | 0.00 | 91 | 1008.8 |
| 20260506060334 | 48 | 322 | 4.0 | 14.0 | 0.00 | 0.00 | 0.00 | 91 | 1008.7 |
| 20260506051337 | 47 | 332 | 5.0 | 11.0 | 0.00 | 0.00 | 0.00 | 89 | 1008.8 |
| 20260506050833 | 47 | 311 | 7.0 | 11.0 | 0.00 | 0.00 | 0.00 | 89 | 1008.7 |
| 20260506050322 | 47 | 321 | 8.0 | 11.0 | 0.00 | 0.00 | 0.00 | 89 | 1008.9 |
| 20260506045100 | 46 | 348 | 6.0 | 13.0 | 0.00 | 0.00 | 0.00 | 90 | 1008.8 |
| 20260506044331 | 46 | 338 | 4.0 | 13.0 | 0.00 | 0.00 | 0.00 | 90 | 1008.9 |
| 20260506043815 | 46 | 347 | 6.0 | 10.0 | 0.00 | 0.00 | 0.00 | 90 | 1008.8 |
| 20260506043319 | 46 | 309 | 6.0 | 10.0 | 0.00 | 0.00 | 0.00 | 90 | 1008.9 |
| 20260506042813 | 46 | 310 | 7.0 | 13.0 | 0.00 | 0.00 | 0.00 | 90 | 1008.7 |
| 20260506042311 | 46 | 13 | 8.0 | 11.0 | 0.00 | 0.00 | 0.00 | 90 | 1008.7 |
| 20260506041812 | 46 | 309 | 6.0 | 11.0 | 0.00 | 0.00 | 0.00 | 90 | 1008.7 |
| 20260506041310 | 46 | 311 | 6.0 | 11.0 | 0.00 | 0.00 | 0.00 | 90 | 1008.7 |
| 20260506041049 | 46 | 316 | 4.0 | 11.0 | 0.00 | 0.00 | 0.00 | 90 | 1008.8 |
| 20260506040539 | 46 | 318 | 5.0 | 11.0 | 0.00 | 0.00 | 0.00 | 90 | 1008.8 |
| 20260506035813 | 46 | 348 | 5.0 | 11.0 | 0.00 | 0.00 | 0.00 | 90 | 1009.0 |
| 20260506035308 | 46 | 331 | 7.0 | 10.0 | 0.00 | 0.00 | 0.00 | 90 | 1008.8 |
| 20260506034812 | 46 | 327 | 5.0 | 10.0 | 0.00 | 0.00 | 0.00 | 90 | 1009.0 |
| 20260506034310 | 46 | 321 | 6.0 | 10.0 | 0.00 | 0.00 | 0.00 | 90 | 1008.9 |
| 20260506033816 | 46 | 297 | 7.0 | 11.0 | 0.00 | 0.00 | 0.00 | 90 | 1009.0 |
| 20260506033310 | 46 | 353 | 5.0 | 11.0 | 0.00 | 0.00 | 0.00 | 90 | 1008.9 |
| 20260506032809 | 46 | 344 | 8.0 | 11.0 | 0.00 | 0.00 | 0.00 | 90 | 1009.0 |
| 20260506031809 | 46 | 337 | 6.0 | 10.0 | 0.00 | 0.00 | 0.00 | 90 | 1009.0 |
| 20260506031310 | 46 | 310 | 6.0 | 13.0 | 0.00 | 0.00 | 0.00 | 90 | 1009.0 |
| 20260506030805 | 46 | 314 | 5.0 | 13.0 | 0.00 | 0.00 | 0.00 | 91 | 1009.0 |
| 20260506030307 | 46 | 322 | 5.0 | 10.0 | 0.00 | 0.00 | 0.00 | 90 | 1009.1 |
| 20260506025806 | 46 | 319 | 4.0 | 10.0 | 0.00 | 0.00 | 0.00 | 90 | 1009.1 |
| 20260506025307 | 46 | 0 | 5.0 | 9.0 | 0.00 | 0.00 | 0.00 | 90 | 1009.0 |
| 20260506024805 | 46 | 317 | 5.0 | 9.0 | 0.00 | 0.00 | 0.00 | 90 | 1009.1 |
| 20260506024533 | 46 | 341 | 5.0 | 11.0 | 0.00 | 0.00 | 0.00 | 90 | 1009.3 |
| 20260506023805 | 46 | 343 | 7.0 | 11.0 | 0.00 | 0.00 | 0.00 | 89 | 1009.1 |
| 20260506023532 | 46 | 359 | 4.0 | 11.0 | 0.00 | 0.00 | 0.00 | 89 | 1009.2 |
| 20260506022806 | 47 | 324 | 7.0 | 15.0 | 0.00 | 0.00 | 0.00 | 89 | 1009.2 |
| 20260506022306 | 47 | 334 | 7.0 | 15.0 | 0.00 | 0.00 | 0.00 | 88 | 1009.0 |
| 20260506021805 | 47 | 342 | 7.0 | 17.0 | 0.00 | 0.00 | 0.00 | 88 | 1009.3 |
| 20260506021305 | 47 | 318 | 6.0 | 17.0 | 0.00 | 0.00 | 0.00 | 88 | 1009.1 |
| 20260506020759 | 47 | 349 | 7.0 | 15.0 | 0.00 | 0.00 | 0.00 | 88 | 1009.0 |
| 20260506020300 | 47 | 346 | 11.0 | 15.0 | 0.00 | 0.00 | 0.00 | 88 | 1009.1 |
| 20260506015758 | 47 | 348 | 9.0 | 18.0 | 0.00 | 0.00 | 0.00 | 88 | 1009.1 |
| 20260506015258 | 47 | 340 | 7.0 | 18.0 | 0.00 | 0.00 | 0.00 | 88 | 1009.0 |
| 20260506014805 | 47 | 342 | 6.0 | 14.0 | 0.00 | 0.00 | 0.00 | 88 | 1009.2 |
| 20260506014258 | 47 | 302 | 5.0 | 14.0 | 0.00 | 0.00 | 0.00 | 88 | 1009.1 |
| 20260506013801 | 47 | 341 | 7.0 | 13.0 | 0.00 | 0.00 | 0.00 | 88 | 1009.3 |
| 20260506013300 | 47 | 317 | 6.0 | 13.0 | 0.00 | 0.00 | 0.00 | 88 | 1009.1 |
| 20260506012759 | 47 | 338 | 8.0 | 13.0 | 0.00 | 0.00 | 0.00 | 88 | 1009.3 |
| 20260506012258 | 47 | 351 | 7.0 | 13.0 | 0.00 | 0.00 | 0.00 | 88 | 1009.2 |
| 20260506011759 | 47 | 349 | 6.0 | 16.0 | 0.00 | 0.00 | 0.00 | 88 | 1009.2 |
| 20260506011300 | 47 | 353 | 11.0 | 16.0 | 0.00 | 0.00 | 0.00 | 88 | 1009.1 |
| 20260506010759 | 47 | 311 | 6.0 | 14.0 | 0.00 | 0.00 | 0.00 | 89 | 1009.3 |
| 20260506010306 | 48 | 348 | 9.0 | 15.0 | 0.00 | 0.00 | 0.00 | 89 | 1009.4 |
| 20260506010017 | 48 | 348 | 6.0 | 15.0 | 0.00 | 0.00 | 0.00 | 89 | 1009.3 |
| 20260506005519 | 48 | 338 | 7.0 | 15.0 | 0.00 | 0.00 | 0.00 | 89 | 1009.2 |
| 20260506005026 | 48 | 329 | 7.0 | 13.0 | 0.00 | 0.00 | 0.00 | 89 | 1009.1 |
| 20260506003800 | 48 | 337 | 7.0 | 15.0 | 0.00 | 0.00 | 0.00 | 89 | 1009.3 |
| 20260506003259 | 48 | 339 | 9.0 | 15.0 | 0.00 | 0.00 | 0.00 | 89 | 1009.5 |
| 20260506002800 | 48 | 341 | 10.0 | 16.0 | 0.00 | 0.00 | 0.00 | 88 | 1009.3 |
| 20260506002258 | 48 | 319 | 6.0 | 17.0 | 0.00 | 0.00 | 0.00 | 89 | 1009.5 |
| 20260506002023 | 48 | 342 | 10.0 | 17.0 | 0.00 | 0.00 | 0.00 | 89 | 1009.5 |
| 20260506001302 | 48 | 351 | 9.0 | 15.0 | 0.00 | 0.00 | 0.00 | 90 | 1009.5 |
| 20260506000803 | 48 | 350 | 10.0 | 15.0 | 0.00 | 0.00 | 0.00 | 90 | 1009.3 |
| 20260506000513 | 48 | 336 | 10.0 | 15.0 | 0.00 | 0.00 | 0.00 | 90 | 1009.4 |
| 20260506000018 | 48 | 354 | 9.0 | 14.0 | 0.00 | 0.00 | 0.00 | 90 | 1009.7 |
| 20260505235259 | 49 | 353 | 9.0 | 14.0 | 0.00 | 0.00 | 0.00 | 91 | 1009.5 |
| 20260505234800 | 49 | 337 | 6.0 | 14.0 | 0.00 | 0.00 | 0.00 | 91 | 1009.7 |
| 20260505234301 | 49 | 349 | 8.0 | 11.0 | 0.00 | 0.00 | 0.00 | 91 | 1009.6 |
| 20260505234023 | 49 | 344 | 6.0 | 10.0 | 0.00 | 0.00 | 0.00 | 91 | 1009.5 |
| 20260505233300 | 49 | 314 | 5.0 | 13.0 | 0.00 | 0.00 | 0.00 | 91 | 1009.6 |
| 20260505232757 | 49 | 350 | 7.0 | 13.0 | 0.00 | 0.00 | 0.00 | 91 | 1009.6 |
| 20260505232530 | 49 | 346 | 6.0 | 14.0 | 0.00 | 0.00 | 0.00 | 91 | 1009.7 |
| 20260505231759 | 49 | 345 | 6.0 | 14.0 | 0.00 | 0.00 | 0.00 | 91 | 1009.6 |
| 20260505231300 | 49 | 328 | 6.0 | 10.0 | 0.00 | 0.00 | 0.00 | 91 | 1009.6 |
| 20260505230759 | 49 | 345 | 8.0 | 10.0 | 0.00 | 0.00 | 0.00 | 91 | 1009.8 |
| 20260505230259 | 49 | 347 | 6.0 | 10.0 | 0.00 | 0.00 | 0.00 | 91 | 1009.6 |
| 20260505230017 | 49 | 359 | 8.0 | 11.0 | 0.00 | 0.00 | 0.00 | 91 | 1009.8 |
| 20260505225259 | 49 | 350 | 6.0 | 11.0 | 0.00 | 0.00 | 0.00 | 90 | 1009.7 |
| 20260505225019 | 49 | 343 | 8.0 | 11.0 | 0.00 | 0.00 | 0.00 | 91 | 1009.6 |
| 20260505224528 | 49 | 345 | 6.0 | 11.0 | 0.00 | 0.00 | 0.00 | 91 | 1009.8 |
| 20260505224018 | 49 | 337 | 4.0 | 11.0 | 0.00 | 0.00 | 0.00 | 90 | 1009.7 |
| 20260505223258 | 49 | 341 | 5.0 | 11.0 | 0.00 | 0.00 | 0.00 | 90 | 1009.8 |
| 20260505222800 | 49 | 341 | 6.0 | 11.0 | 0.00 | 0.00 | 0.00 | 90 | 1009.6 |
| 20260505222258 | 49 | 337 | 6.0 | 10.0 | 0.00 | 0.00 | 0.00 | 90 | 1009.7 |
| 20260505221759 | 49 | 344 | 7.0 | 11.0 | 0.00 | 0.00 | 0.00 | 90 | 1009.8 |
| 20260505221302 | 49 | 346 | 6.0 | 11.0 | 0.00 | 0.00 | 0.00 | 90 | 1009.8 |
| 20260505220758 | 49 | 349 | 7.0 | 11.0 | 0.00 | 0.00 | 0.00 | 90 | 1009.9 |
| 20260505220300 | 49 | 340 | 7.0 | 11.0 | 0.00 | 0.00 | 0.00 | 90 | 1009.6 |
| 20260505215800 | 50 | 357 | 8.0 | 11.0 | 0.00 | 0.00 | 0.00 | 89 | 1009.9 |
| 20260505215528 | 50 | 354 | 8.0 | 13.0 | 0.00 | 0.00 | 0.00 | 89 | 1009.9 |
| 20260505214800 | 50 | 351 | 6.0 | 13.0 | 0.00 | 0.00 | 0.00 | 89 | 1009.8 |
| 20260505214259 | 50 | 323 | 8.0 | 14.0 | 0.00 | 0.00 | 0.00 | 89 | 1009.8 |
| 20260505213758 | 50 | 352 | 7.0 | 14.0 | 0.00 | 0.00 | 0.00 | 89 | 1009.9 |
| 20260505213301 | 50 | 0 | 9.0 | 15.0 | 0.00 | 0.00 | 0.00 | 88 | 1009.9 |
| 20260505212758 | 50 | 346 | 11.0 | 15.0 | 0.00 | 0.00 | 0.00 | 88 | 1009.5 |
| 20260505212258 | 50 | 359 | 10.0 | 18.0 | 0.00 | 0.00 | 0.00 | 88 | 1009.8 |
| 20260505211800 | 50 | 331 | 6.0 | 18.0 | 0.00 | 0.00 | 0.00 | 87 | 1009.9 |
| 20260505211259 | 51 | 339 | 9.0 | 15.0 | 0.00 | 0.00 | 0.00 | 88 | 1009.8 |
| 20260505210759 | 51 | 352 | 9.0 | 17.0 | 0.00 | 0.00 | 0.00 | 88 | 1009.9 |
| 20260505210258 | 51 | 354 | 11.0 | 17.0 | 0.00 | 0.00 | 0.00 | 88 | 1009.8 |
| 20260505205759 | 51 | 343 | 9.0 | 17.0 | 0.00 | 0.00 | 0.00 | 87 | 1009.8 |
| 20260505205525 | 51 | 348 | 12.0 | 15.0 | 0.00 | 0.00 | 0.00 | 87 | 1009.7 |
| 20260505205016 | 51 | 333 | 11.0 | 16.0 | 0.00 | 0.00 | 0.00 | 87 | 1009.8 |
| 20260505204517 | 51 | 350 | 10.0 | 16.0 | 0.00 | 0.00 | 0.00 | 87 | 1009.7 |
| 20260505203802 | 51 | 349 | 6.0 | 16.0 | 0.00 | 0.00 | 0.00 | 87 | 1009.8 |
| 20260505202758 | 51 | 339 | 8.0 | 14.0 | 0.00 | 0.00 | 0.00 | 86 | 1009.8 |
| 20260505202258 | 51 | 344 | 11.0 | 17.0 | 0.00 | 0.00 | 0.00 | 86 | 1009.9 |
| 20260505201759 | 51 | 345 | 7.0 | 17.0 | 0.00 | 0.00 | 0.00 | 86 | 1009.7 |
| 20260505200758 | 51 | 346 | 11.0 | 15.0 | 0.00 | 0.00 | 0.00 | 86 | 1009.7 |
| 20260505200300 | 51 | 336 | 6.0 | 18.0 | 0.00 | 0.00 | 0.00 | 86 | 1009.7 |
| 20260505195804 | 52 | 357 | 10.0 | 18.0 | 0.00 | 0.00 | 0.00 | 85 | 1009.5 |
| 20260505195305 | 52 | 333 | 8.0 | 15.0 | 0.00 | 0.00 | 0.00 | 85 | 1009.6 |
| 20260505194800 | 52 | 358 | 12.0 | 15.0 | 0.00 | 0.00 | 0.00 | 85 | 1009.6 |
| 20260505194300 | 52 | 355 | 11.0 | 21.0 | 0.00 | 0.00 | 0.00 | 85 | 1009.4 |
| 20260505193800 | 52 | 331 | 9.0 | 21.0 | 0.00 | 0.00 | 0.00 | 84 | 1009.4 |
| 20260505193258 | 52 | 0 | 10.0 | 21.0 | 0.00 | 0.00 | 0.00 | 84 | 1009.2 |
| 20260505192758 | 53 | 358 | 8.0 | 21.0 | 0.00 | 0.00 | 0.00 | 84 | 1009.1 |
| 20260505192301 | 53 | 341 | 10.0 | 18.0 | 0.00 | 0.00 | 0.00 | 84 | 1009.1 |
| 20260505191758 | 53 | 341 | 10.0 | 18.0 | 0.00 | 0.00 | 0.00 | 84 | 1009.2 |
| 20260505191531 | 53 | 345 | 11.0 | 15.0 | 0.00 | 0.00 | 0.00 | 84 | 1009.2 |
| 20260505190807 | 53 | 352 | 9.0 | 16.0 | 0.00 | 0.00 | 0.00 | 84 | 1009.1 |
| 20260505190259 | 53 | 359 | 9.0 | 18.0 | 0.00 | 0.00 | 0.00 | 83 | 1009.3 |
| 20260505190027 | 53 | 357 | 9.0 | 18.0 | 0.00 | 0.00 | 0.00 | 83 | 1009.3 |
| 20260505185258 | 53 | 343 | 7.0 | 16.0 | 0.00 | 0.00 | 0.00 | 83 | 1009.1 |
| 20260505184759 | 53 | 327 | 11.0 | 15.0 | 0.00 | 0.00 | 0.00 | 83 | 1009.1 |
| 20260505184256 | 53 | 342 | 10.0 | 15.0 | 0.00 | 0.00 | 0.00 | 84 | 1009.3 |
| 20260505183259 | 54 | 1 | 6.0 | 18.0 | 0.00 | 0.00 | 0.00 | 83 | 1009.1 |
| 20260505182258 | 54 | 342 | 7.0 | 18.0 | 0.00 | 0.00 | 0.00 | 83 | 1009.2 |
| 20260505181759 | 54 | 328 | 12.0 | 18.0 | 0.00 | 0.00 | 0.00 | 82 | 1009.0 |
| 20260505181304 | 54 | 17 | 11.0 | 18.0 | 0.00 | 0.00 | 0.00 | 82 | 1009.0 |
| 20260505180754 | 54 | 348 | 11.0 | 19.0 | 0.00 | 0.00 | 0.00 | 82 | 1009.1 |
| 20260505180245 | 55 | 351 | 7.0 | 24.0 | 0.00 | 0.00 | 0.00 | 82 | 1009.1 |
| 20260505175746 | 55 | 358 | 11.0 | 24.0 | 0.00 | 0.00 | 0.00 | 81 | 1009.0 |
| 20260505175249 | 55 | 345 | 13.0 | 21.0 | 0.00 | 0.00 | 0.00 | 81 | 1009.0 |
| 20260505174746 | 55 | 329 | 15.0 | 21.0 | 0.00 | 0.00 | 0.00 | 81 | 1009.1 |
| 20260505174248 | 55 | 354 | 7.0 | 16.0 | 0.00 | 0.00 | 0.00 | 82 | 1009.2 |
| 20260505174007 | 56 | 351 | 9.0 | 18.0 | 0.00 | 0.00 | 0.00 | 81 | 1008.9 |
| 20260505173248 | 56 | 332 | 6.0 | 18.0 | 0.00 | 0.00 | 0.00 | 81 | 1009.0 |
| 20260505172747 | 56 | 345 | 11.0 | 19.0 | 0.00 | 0.00 | 0.00 | 80 | 1009.0 |
| 20260505172244 | 56 | 342 | 11.0 | 19.0 | 0.00 | 0.00 | 0.00 | 81 | 1008.9 |
| 20260505172025 | 56 | 354 | 13.0 | 19.0 | 0.00 | 0.00 | 0.00 | 80 | 1008.9 |
| 20260505171249 | 56 | 350 | 11.0 | 17.0 | 0.00 | 0.00 | 0.00 | 81 | 1009.0 |
| 20260505170749 | 56 | 355 | 12.0 | 17.0 | 0.00 | 0.00 | 0.00 | 80 | 1008.9 |
| 20260505170247 | 56 | 343 | 5.0 | 16.0 | 0.00 | 0.00 | 0.00 | 81 | 1008.9 |
| 20260505165751 | 57 | 345 | 7.0 | 18.0 | 0.00 | 0.00 | 0.00 | 81 | 1008.9 |
| 20260505165247 | 57 | 351 | 10.0 | 18.0 | 0.00 | 0.00 | 0.00 | 80 | 1008.9 |
| 20260505164748 | 57 | 356 | 13.0 | 16.0 | 0.00 | 0.00 | 0.00 | 80 | 1008.9 |
| 20260505164246 | 57 | 334 | 9.0 | 16.0 | 0.00 | 0.00 | 0.00 | 80 | 1009.0 |